Погода в Балаганном

Россия / Магаданская область     59°39′18″N   149°05′42″E
темп.,
°C
ветер,
м/с
пор.,
м/с
влажн.,
%
обл.,
%
осадки,
мм/ч
давл.,
гПа
погр.,
м
25 июля, вс
вс2523:00+11в3496100 0.0 101054
02:00+11в229867 0.0 101040
05:00+12вюв129785 0.0 1010116
08:00+14юв2291100 0.0 1010343
11:00+16юв338095 0.1 1009671
14:00+18юв667387 0.0 1008760
17:00+16ююв777874 0.0 1007684
20:00+13юв6789100 0.0 1007451
26 июля, пн
пн2623:00+12юв6898100 0.5 1007460
02:00+11вюв5898100 0.6 1005475
05:00+11вюв4798100 0.9 1004379
08:00+11вюв5898100 0.3 1003459
11:00+12юв5998100 3.6 1002599
14:00+12в4798100 3.0 1000418
17:00+12юв2499100 6.1 999409
20:00+12зсз239798 2.3 998118
27 июля, вт
вт2723:00+12зсз3493100 2.3 99884
02:00+12зсз459219 0.0 99983
05:00+12сз57877 0.0 999101
08:00+15ссз69690 0.0 1001718
11:00+19ссз77530 0.0 10011087
14:00+22ссз67435 0.0 10001651
17:00+23сз3538100 0.0 10001989
20:00+21ююз335646 0.0 100026
28 июля, ср
ср2823:00+16ю1178100 0.3 100211
02:00+14с118274 0.1 100311
05:00+12в22845 0.1 100311
08:00+16вюв23706 0.0 1005241
11:00+18юв4658100 0.0 1005533
14:00+19юв6755100 0.0 1005626
17:00+17ю457393 0.0 1004428
20:00+15юв2282100 0.0 100549
29 июля, чт
чт2923:00+14вюв2290100 0.1 100553
02:00+13вюв4792100 0.3 1004230
05:00+11юв5997100 1.2 1004456
08:00+11в4798100 10.5 1004458
11:00+10св3594100 18.8 1004334
14:00+9ссв5794100 8.1 1005434
17:00+8ссв4689100 10.8 1006414
20:00+9с1284100 0.1 100771